Location: La Fredeussais
(48.1780°N, 1.3980°W)
Time: 05:59:59
(UTC+00:00)

ITUPSAT 1 - Pass Details

Date: 26 October 2021
Orbit: 702 x 712 km, 98.6° (Epoch: 06 December)

Event Time Altitude Azimuth Distance (km) Brightness Sun altitude
Rises 04:48:16 0° 101° (E) 3,088 ? -19.5°
Reaches altitude 10° 04:52:49 10° 60° (ENE) 2,176 ? -18.7°
Maximum altitude 04:53:27 10° 52° (NE) 2,160 ? -18.6°
Drops below altitude 10° 04:54:05 10° 44° (NE) 2,177 ? -18.5°
Sets 04:58:38 0° 4° (N) 3,103 ? -17.8°
